Year,Month,Day,Hour,Minute,Value (Times are PST for temperature in C)
2008,07,24,00,00,14.10
2008,07,24,00,01,14.10
2008,07,24,00,02,14.00
2008,07,24,00,03,14.00
2008,07,24,00,04,13.90
2008,07,24,00,05,13.90
2008,07,24,00,06,13.90
2008,07,24,00,07,13.90
2008,07,24,00,08,13.90
2008,07,24,00,09,13.90
2008,07,24,00,10,13.90
2008,07,24,00,11,13.90
2008,07,24,00,12,13.90
2008,07,24,00,13,13.90
2008,07,24,00,14,13.90
2008,07,24,00,15,13.90
2008,07,24,00,16,13.90
2008,07,24,00,17,13.90
2008,07,24,00,18,13.90
2008,07,24,00,19,13.80
2008,07,24,00,20,13.80
2008,07,24,00,21,13.80
2008,07,24,00,22,13.80
2008,07,24,00,23,13.80
2008,07,24,00,24,13.80
2008,07,24,00,25,13.70
2008,07,24,00,26,13.70
2008,07,24,00,27,13.70
2008,07,24,00,28,13.70
2008,07,24,00,29,13.70
2008,07,24,00,30,13.60
2008,07,24,00,31,13.60
2008,07,24,00,32,13.50
2008,07,24,00,33,13.50
2008,07,24,00,34,13.50
2008,07,24,00,35,13.50
2008,07,24,00,36,13.40
2008,07,24,00,37,13.40
2008,07,24,00,38,13.40
2008,07,24,00,39,13.40
2008,07,24,00,40,13.30
2008,07,24,00,41,13.30
2008,07,24,00,42,13.30
2008,07,24,00,43,13.30
2008,07,24,00,44,13.30
2008,07,24,00,45,13.30
2008,07,24,00,46,13.30
2008,07,24,00,47,13.30
2008,07,24,00,48,13.30
2008,07,24,00,49,13.30
2008,07,24,00,50,13.30
2008,07,24,00,51,13.30
2008,07,24,00,52,13.30
2008,07,24,00,53,13.20
2008,07,24,00,54,13.20
2008,07,24,00,55,13.20
2008,07,24,00,56,13.20
2008,07,24,00,57,13.10
2008,07,24,00,58,13.10
2008,07,24,00,59,13.10
2008,07,24,01,00,13.10
2008,07,24,01,01,13.10
2008,07,24,01,02,13.00
2008,07,24,01,03,13.00
2008,07,24,01,04,13.00
2008,07,24,01,05,13.00
2008,07,24,01,06,12.90
2008,07,24,01,07,12.90
2008,07,24,01,08,12.90
2008,07,24,01,09,12.90
2008,07,24,01,10,12.80
2008,07,24,01,11,12.80
2008,07,24,01,12,12.80
2008,07,24,01,13,12.80
2008,07,24,01,14,12.80
2008,07,24,01,15,12.80
2008,07,24,01,16,12.70
2008,07,24,01,17,12.70
2008,07,24,01,18,12.70
2008,07,24,01,19,12.70
2008,07,24,01,20,12.70
2008,07,24,01,21,12.60
2008,07,24,01,22,12.60
2008,07,24,01,23,12.60
2008,07,24,01,24,12.60
2008,07,24,01,25,12.50
2008,07,24,01,26,12.60
2008,07,24,01,27,12.50
2008,07,24,01,28,12.50
2008,07,24,01,29,12.50
2008,07,24,01,30,12.50
2008,07,24,01,31,12.50
2008,07,24,01,32,12.50
2008,07,24,01,33,12.40
2008,07,24,01,34,12.40
2008,07,24,01,35,12.40
2008,07,24,01,36,12.40
2008,07,24,01,37,12.40
2008,07,24,01,38,12.40
2008,07,24,01,39,12.40
2008,07,24,01,40,12.40
2008,07,24,01,41,12.30
2008,07,24,01,42,12.30
2008,07,24,01,43,12.30
2008,07,24,01,44,12.30
2008,07,24,01,45,12.20
2008,07,24,01,46,12.20
2008,07,24,01,47,12.20
2008,07,24,01,48,12.20
2008,07,24,01,49,12.20
2008,07,24,01,50,12.20
2008,07,24,01,51,12.20
2008,07,24,01,52,12.20
2008,07,24,01,53,12.10
2008,07,24,01,54,12.10
2008,07,24,01,55,12.10
2008,07,24,01,56,12.10
2008,07,24,01,57,12.10
2008,07,24,01,58,12.00
2008,07,24,01,59,12.00
2008,07,24,02,00,12.00
2008,07,24,02,01,11.90
2008,07,24,02,02,11.90
2008,07,24,02,03,11.90
2008,07,24,02,04,11.90
2008,07,24,02,05,11.90
2008,07,24,02,06,11.90
2008,07,24,02,07,11.80
2008,07,24,02,08,11.80
2008,07,24,02,09,11.80
2008,07,24,02,10,11.70
2008,07,24,02,11,11.70
2008,07,24,02,12,11.70
2008,07,24,02,13,11.60
2008,07,24,02,14,11.60
2008,07,24,02,15,11.60
2008,07,24,02,16,11.60
2008,07,24,02,17,11.60
2008,07,24,02,18,11.60
2008,07,24,02,19,11.50
2008,07,24,02,20,11.50
2008,07,24,02,21,11.40
2008,07,24,02,22,11.40
2008,07,24,02,23,11.40
2008,07,24,02,24,11.30
2008,07,24,02,25,11.30
2008,07,24,02,26,11.30
2008,07,24,02,27,11.30
2008,07,24,02,28,11.30
2008,07,24,02,29,11.20
2008,07,24,02,30,11.20
2008,07,24,02,31,11.20
2008,07,24,02,32,11.10
2008,07,24,02,33,11.10
2008,07,24,02,34,11.10
2008,07,24,02,35,11.00
2008,07,24,02,36,11.00
2008,07,24,02,37,11.00
2008,07,24,02,38,11.00
2008,07,24,02,39,10.90
2008,07,24,02,40,11.00
2008,07,24,02,41,11.00
2008,07,24,02,42,10.90
2008,07,24,02,43,10.90
2008,07,24,02,44,10.90
2008,07,24,02,45,10.90
2008,07,24,02,46,10.90
2008,07,24,02,47,10.90
2008,07,24,02,48,10.90
2008,07,24,02,49,10.90
2008,07,24,02,50,10.90
2008,07,24,02,51,10.90
2008,07,24,02,52,10.90
2008,07,24,02,53,10.80
2008,07,24,02,54,10.80
2008,07,24,02,55,10.80
2008,07,24,02,56,10.80
2008,07,24,02,57,10.80
2008,07,24,02,58,10.80
2008,07,24,02,59,10.80
2008,07,24,03,00,10.80
2008,07,24,03,01,10.80
2008,07,24,03,02,10.80
2008,07,24,03,03,10.70
2008,07,24,03,04,10.70
2008,07,24,03,05,10.70
2008,07,24,03,06,10.70
2008,07,24,03,07,10.70
2008,07,24,03,08,10.60
2008,07,24,03,09,10.60
2008,07,24,03,10,10.60
2008,07,24,03,11,10.50
2008,07,24,03,12,10.50
2008,07,24,03,13,10.50
2008,07,24,03,14,10.50
2008,07,24,03,15,10.50
2008,07,24,03,16,10.40
2008,07,24,03,17,10.40
2008,07,24,03,18,10.40
2008,07,24,03,19,10.40
2008,07,24,03,20,10.40
2008,07,24,03,21,10.40
2008,07,24,03,22,10.30
2008,07,24,03,23,10.40
2008,07,24,03,24,10.40
2008,07,24,03,25,10.40
2008,07,24,03,26,10.40
2008,07,24,03,27,10.40
2008,07,24,03,28,10.40
2008,07,24,03,29,10.30
2008,07,24,03,30,10.30
2008,07,24,03,31,10.30
2008,07,24,03,32,10.30
2008,07,24,03,33,10.30
2008,07,24,03,34,10.30
2008,07,24,03,35,10.30
2008,07,24,03,36,10.20
2008,07,24,03,37,10.20
2008,07,24,03,38,10.20
2008,07,24,03,39,10.20
2008,07,24,03,40,10.20
2008,07,24,03,41,10.20
2008,07,24,03,42,10.10
2008,07,24,03,43,10.10
2008,07,24,03,44,10.10
2008,07,24,03,45,10.10
2008,07,24,03,46,10.00
2008,07,24,03,47,10.00
2008,07,24,03,48,10.00
2008,07,24,03,49,10.00
2008,07,24,03,50,10.00
2008,07,24,03,51,9.90
2008,07,24,03,52,9.90
2008,07,24,03,53,9.90
2008,07,24,03,54,9.90
2008,07,24,03,55,9.90
2008,07,24,03,56,9.90
2008,07,24,03,57,9.90
2008,07,24,03,58,9.90
2008,07,24,03,59,9.80
2008,07,24,04,00,9.80
2008,07,24,04,01,9.80
2008,07,24,04,02,9.80
2008,07,24,04,03,9.80
2008,07,24,04,04,9.80
2008,07,24,04,05,9.70
2008,07,24,04,06,9.70
2008,07,24,04,07,9.70
2008,07,24,04,08,9.70
2008,07,24,04,09,9.70
2008,07,24,04,10,9.70
2008,07,24,04,11,9.70
2008,07,24,04,12,9.70
2008,07,24,04,13,9.70
2008,07,24,04,14,9.60
2008,07,24,04,15,9.60
2008,07,24,04,16,9.60
2008,07,24,04,17,9.60
2008,07,24,04,18,9.60
2008,07,24,04,19,9.60
2008,07,24,04,20,9.60
2008,07,24,04,21,9.60
2008,07,24,04,22,9.60
2008,07,24,04,23,9.60
2008,07,24,04,24,9.60
2008,07,24,04,25,9.60
2008,07,24,04,26,9.60
2008,07,24,04,27,9.60
2008,07,24,04,28,9.50
2008,07,24,04,29,9.50
2008,07,24,04,30,9.50
2008,07,24,04,31,9.50
2008,07,24,04,32,9.50
2008,07,24,04,33,9.50
2008,07,24,04,34,9.40
2008,07,24,04,35,9.50
2008,07,24,04,36,9.40
2008,07,24,04,37,9.40
2008,07,24,04,38,9.40
2008,07,24,04,39,9.40
2008,07,24,04,40,9.40
2008,07,24,04,41,9.40
2008,07,24,04,42,9.40
2008,07,24,04,43,9.30
2008,07,24,04,44,9.30
2008,07,24,04,45,9.30
2008,07,24,04,46,9.30
2008,07,24,04,47,9.30
2008,07,24,04,48,9.30
2008,07,24,04,49,9.30
2008,07,24,04,50,9.30
2008,07,24,04,51,9.30
2008,07,24,04,52,9.30
2008,07,24,04,53,9.30
2008,07,24,04,54,9.30
2008,07,24,04,55,9.30
2008,07,24,04,56,9.20
2008,07,24,04,57,9.20
2008,07,24,04,58,9.20
2008,07,24,04,59,9.20
2008,07,24,05,00,9.20
2008,07,24,05,01,9.20
2008,07,24,05,02,9.20
2008,07,24,05,03,9.20
2008,07,24,05,04,9.20
2008,07,24,05,05,9.20
2008,07,24,05,06,9.20
2008,07,24,05,07,9.20
2008,07,24,05,08,9.20
2008,07,24,05,09,9.20
2008,07,24,05,10,9.20
2008,07,24,05,11,9.20
2008,07,24,05,12,9.20
2008,07,24,05,13,9.30
2008,07,24,05,14,9.30
2008,07,24,05,15,9.30
2008,07,24,05,16,9.30
2008,07,24,05,17,9.30
2008,07,24,05,18,9.30
2008,07,24,05,19,9.30
2008,07,24,05,20,9.30
2008,07,24,05,21,9.30
2008,07,24,05,22,9.30
2008,07,24,05,23,9.20
2008,07,24,05,24,9.20
2008,07,24,05,25,9.20
2008,07,24,05,26,9.20
2008,07,24,05,27,9.20
2008,07,24,05,28,9.10
2008,07,24,05,29,9.10
2008,07,24,05,30,9.10
2008,07,24,05,31,9.20
2008,07,24,05,32,9.20
2008,07,24,05,33,9.20
2008,07,24,05,34,9.20
2008,07,24,05,35,9.20
2008,07,24,05,36,9.20
2008,07,24,05,37,9.20
2008,07,24,05,38,9.20
2008,07,24,05,39,9.20
2008,07,24,05,40,9.20
2008,07,24,05,41,9.20
2008,07,24,05,42,9.20
2008,07,24,05,43,9.20
2008,07,24,05,44,9.20
2008,07,24,05,45,9.20
2008,07,24,05,46,9.20
2008,07,24,05,47,9.20
2008,07,24,05,48,9.10
2008,07,24,05,49,9.10
2008,07,24,05,50,9.10
2008,07,24,05,51,9.10
2008,07,24,05,52,9.10
2008,07,24,05,53,9.10
2008,07,24,05,54,9.10
2008,07,24,05,55,9.10
2008,07,24,05,56,9.10
2008,07,24,05,57,9.10
2008,07,24,05,58,9.20
2008,07,24,05,59,9.10
2008,07,24,06,00,9.20
2008,07,24,06,01,9.10
2008,07,24,06,02,9.10
2008,07,24,06,03,9.10
2008,07,24,06,04,9.10
2008,07,24,06,05,9.10
2008,07,24,06,06,9.10
2008,07,24,06,07,9.10
2008,07,24,06,08,9.10
2008,07,24,06,09,9.10
2008,07,24,06,10,9.10
2008,07,24,06,11,9.10
2008,07,24,06,12,9.10
2008,07,24,06,13,9.10
2008,07,24,06,14,9.10
2008,07,24,06,15,9.10
2008,07,24,06,16,9.10
2008,07,24,06,17,9.20
2008,07,24,06,18,9.20
2008,07,24,06,19,9.20
2008,07,24,06,20,9.30
2008,07,24,06,21,9.30
2008,07,24,06,22,9.30
2008,07,24,06,23,9.30
2008,07,24,06,24,9.30
2008,07,24,06,25,9.30
2008,07,24,06,26,9.40
2008,07,24,06,27,9.40
2008,07,24,06,28,9.40
2008,07,24,06,29,9.40
2008,07,24,06,30,9.40
2008,07,24,06,31,9.50
2008,07,24,06,32,9.50
2008,07,24,06,33,9.50
2008,07,24,06,34,9.60
2008,07,24,06,35,9.60
2008,07,24,06,36,9.60
2008,07,24,06,37,9.60
2008,07,24,06,38,9.60
2008,07,24,06,39,9.60
2008,07,24,06,40,9.70
2008,07,24,06,41,9.70
2008,07,24,06,42,9.80
2008,07,24,06,43,9.80
2008,07,24,06,44,9.90
2008,07,24,06,45,9.90
2008,07,24,06,46,9.90
2008,07,24,06,47,9.90
2008,07,24,06,48,10.00
2008,07,24,06,49,10.00
2008,07,24,06,50,10.10
2008,07,24,06,51,10.10
2008,07,24,06,52,10.10
2008,07,24,06,53,10.20
2008,07,24,06,54,10.20
2008,07,24,06,55,10.20
2008,07,24,06,56,10.20
2008,07,24,06,57,10.30
2008,07,24,06,58,10.30
2008,07,24,06,59,10.30
2008,07,24,07,00,10.40
2008,07,24,07,01,10.40
2008,07,24,07,02,10.50
2008,07,24,07,03,10.50
2008,07,24,07,04,10.60
2008,07,24,07,05,10.60
2008,07,24,07,06,10.60
2008,07,24,07,07,10.60
2008,07,24,07,08,10.60
2008,07,24,07,09,10.70
2008,07,24,07,10,10.70
2008,07,24,07,11,10.70
2008,07,24,07,12,10.80
2008,07,24,07,13,10.80
2008,07,24,07,14,10.80
2008,07,24,07,15,10.90
2008,07,24,07,16,10.90
2008,07,24,07,17,10.90
2008,07,24,07,18,11.00
2008,07,24,07,19,11.00
2008,07,24,07,20,11.00
2008,07,24,07,21,11.10
2008,07,24,07,22,11.10
2008,07,24,07,23,11.10
2008,07,24,07,24,11.20
2008,07,24,07,25,11.20
2008,07,24,07,26,11.30
2008,07,24,07,27,11.30
2008,07,24,07,28,11.30
2008,07,24,07,29,11.30
2008,07,24,07,30,11.40
2008,07,24,07,31,11.40
2008,07,24,07,32,11.50
2008,07,24,07,33,11.50
2008,07,24,07,34,11.60
2008,07,24,07,35,11.60
2008,07,24,07,36,11.60
2008,07,24,07,37,11.70
2008,07,24,07,38,11.70
2008,07,24,07,39,11.70
2008,07,24,07,40,11.70
2008,07,24,07,41,11.70
2008,07,24,07,42,11.70
2008,07,24,07,43,11.80
2008,07,24,07,44,11.80
2008,07,24,07,45,11.80
2008,07,24,07,46,11.80
2008,07,24,07,47,11.80
2008,07,24,07,48,11.90
2008,07,24,07,49,11.90
2008,07,24,07,50,11.90
2008,07,24,07,51,11.90
2008,07,24,07,52,12.00
2008,07,24,07,53,12.00
2008,07,24,07,54,12.00
2008,07,24,07,55,12.10
2008,07,24,07,56,12.10
2008,07,24,07,57,12.10
2008,07,24,07,58,12.20
2008,07,24,07,59,12.20
2008,07,24,08,00,12.20
2008,07,24,08,01,12.20
2008,07,24,08,02,12.30
2008,07,24,08,03,12.30
2008,07,24,08,04,12.30
2008,07,24,08,05,12.30
2008,07,24,08,06,12.40
2008,07,24,08,07,12.40
2008,07,24,08,08,12.40
2008,07,24,08,09,12.40
2008,07,24,08,10,12.40
2008,07,24,08,11,12.40
2008,07,24,08,12,12.40
2008,07,24,08,13,12.50
2008,07,24,08,14,12.50
2008,07,24,08,15,12.50
2008,07,24,08,16,12.50
2008,07,24,08,17,12.50
2008,07,24,08,18,12.50
2008,07,24,08,19,12.50
2008,07,24,08,20,12.50
2008,07,24,08,21,12.50
2008,07,24,08,22,12.50
2008,07,24,08,23,12.60
2008,07,24,08,24,12.60
2008,07,24,08,25,12.50
2008,07,24,08,26,12.50
2008,07,24,08,27,12.50
2008,07,24,08,28,12.50
2008,07,24,08,29,12.50
2008,07,24,08,30,12.50
2008,07,24,08,31,12.50
2008,07,24,08,32,12.50
2008,07,24,08,33,12.50
2008,07,24,08,34,12.50
2008,07,24,08,35,12.50
2008,07,24,08,36,12.60
2008,07,24,08,37,12.60
2008,07,24,08,38,12.60
2008,07,24,08,39,12.60
2008,07,24,08,40,12.60
2008,07,24,08,41,12.60
2008,07,24,08,42,12.60
2008,07,24,08,43,12.60
2008,07,24,08,44,12.60
2008,07,24,08,45,12.70
2008,07,24,08,46,12.70
2008,07,24,08,47,12.70
2008,07,24,08,48,12.70
2008,07,24,08,49,12.70
2008,07,24,08,50,12.70
2008,07,24,08,51,12.70
2008,07,24,08,52,12.70
2008,07,24,08,53,12.70
2008,07,24,08,54,12.70
2008,07,24,08,55,12.70
2008,07,24,08,56,12.70
2008,07,24,08,57,12.70
2008,07,24,08,58,12.70
2008,07,24,08,59,12.70
2008,07,24,09,00,12.70
2008,07,24,09,01,12.70
2008,07,24,09,02,12.80
2008,07,24,09,03,12.80
2008,07,24,09,04,12.80
2008,07,24,09,05,12.90
2008,07,24,09,06,12.90
2008,07,24,09,07,12.90
2008,07,24,09,08,13.00
2008,07,24,09,09,13.00
2008,07,24,09,10,13.00
2008,07,24,09,11,13.10
2008,07,24,09,12,13.10
2008,07,24,09,13,13.20
2008,07,24,09,14,13.20
2008,07,24,09,15,13.30
2008,07,24,09,16,13.30
2008,07,24,09,17,13.30
2008,07,24,09,18,13.40
2008,07,24,09,19,13.40
2008,07,24,09,20,13.40
2008,07,24,09,21,13.40
2008,07,24,09,22,13.40
2008,07,24,09,23,13.40
2008,07,24,09,24,13.50
2008,07,24,09,25,13.50
2008,07,24,09,26,13.60
2008,07,24,09,27,13.60
2008,07,24,09,28,13.70
2008,07,24,09,29,13.70
2008,07,24,09,30,13.70
2008,07,24,09,31,13.70
2008,07,24,09,32,13.80
2008,07,24,09,33,13.80
2008,07,24,09,34,13.80
2008,07,24,09,35,13.90
2008,07,24,09,36,13.90
2008,07,24,09,37,13.90
2008,07,24,09,38,14.00
2008,07,24,09,39,14.00
2008,07,24,09,40,14.00
2008,07,24,09,41,14.10
2008,07,24,09,42,14.10
2008,07,24,09,43,14.10
2008,07,24,09,44,14.10
2008,07,24,09,45,14.10
2008,07,24,09,46,14.10
2008,07,24,09,47,14.10
2008,07,24,09,48,14.10
2008,07,24,09,49,14.10
2008,07,24,09,50,14.20
2008,07,24,09,51,14.20
2008,07,24,09,52,14.20
2008,07,24,09,53,14.20
2008,07,24,09,54,14.30
2008,07,24,09,55,14.30
2008,07,24,09,56,14.30
2008,07,24,09,57,14.30
2008,07,24,09,58,14.40
2008,07,24,09,59,14.40
2008,07,24,10,00,14.50
2008,07,24,10,01,14.50
2008,07,24,10,02,14.60
2008,07,24,10,03,14.60
2008,07,24,10,04,14.70
2008,07,24,10,05,14.70
2008,07,24,10,06,14.70
2008,07,24,10,07,14.80
2008,07,24,10,08,14.80
2008,07,24,10,09,14.90
2008,07,24,10,10,15.00
2008,07,24,10,11,15.00
2008,07,24,10,12,15.00
2008,07,24,10,13,15.00
2008,07,24,10,14,15.00
2008,07,24,10,15,15.00
2008,07,24,10,16,15.10
2008,07,24,10,17,15.10
2008,07,24,10,18,15.20
2008,07,24,10,19,15.20
2008,07,24,10,20,15.20
2008,07,24,10,21,15.10
2008,07,24,10,22,15.10
2008,07,24,10,23,15.10
2008,07,24,10,24,15.20
2008,07,24,10,25,15.20
2008,07,24,10,26,15.20
2008,07,24,10,27,15.30
2008,07,24,10,28,15.30
2008,07,24,10,29,15.40
2008,07,24,10,30,15.50
2008,07,24,10,31,15.60
2008,07,24,10,32,15.70
2008,07,24,10,33,15.80
2008,07,24,10,34,15.90
2008,07,24,10,35,16.00
2008,07,24,10,36,16.10
2008,07,24,10,37,16.30
2008,07,24,10,38,16.50
2008,07,24,10,39,16.60
2008,07,24,10,40,16.80
2008,07,24,10,41,16.90
2008,07,24,10,42,17.10
2008,07,24,10,43,17.20
2008,07,24,10,44,17.30
2008,07,24,10,45,17.40
2008,07,24,10,46,17.50
2008,07,24,10,47,17.60
2008,07,24,10,48,17.70
2008,07,24,10,49,17.80
2008,07,24,10,50,17.80
2008,07,24,10,51,17.90
2008,07,24,10,52,17.90
2008,07,24,10,53,18.00
2008,07,24,10,54,18.10
2008,07,24,10,55,18.10
2008,07,24,10,56,18.10
2008,07,24,10,57,18.20
2008,07,24,10,58,18.20
2008,07,24,10,59,18.20
2008,07,24,11,00,18.20
2008,07,24,11,01,18.20
2008,07,24,11,02,18.20
2008,07,24,11,03,18.30
2008,07,24,11,04,18.30
2008,07,24,11,05,18.30
2008,07,24,11,06,18.40
2008,07,24,11,07,18.40
2008,07,24,11,08,18.40
2008,07,24,11,09,18.30
2008,07,24,11,10,18.30
2008,07,24,11,11,18.30
2008,07,24,11,12,18.30
2008,07,24,11,13,18.30
2008,07,24,11,14,18.30
2008,07,24,11,15,18.40
2008,07,24,11,16,18.40
2008,07,24,11,17,18.40
2008,07,24,11,18,18.40
2008,07,24,11,19,18.40
2008,07,24,11,20,18.40
2008,07,24,11,21,18.50
2008,07,24,11,22,18.50
2008,07,24,11,23,18.60
2008,07,24,11,24,18.60
2008,07,24,11,25,18.70
2008,07,24,11,26,18.60
2008,07,24,11,27,18.60
2008,07,24,11,28,18.60
2008,07,24,11,29,18.70
2008,07,24,11,30,18.70
2008,07,24,11,31,18.70
2008,07,24,11,32,18.70
2008,07,24,11,33,18.70
2008,07,24,11,34,18.70
2008,07,24,11,35,18.80
2008,07,24,11,36,18.90
2008,07,24,11,37,18.90
2008,07,24,11,38,19.00
2008,07,24,11,39,19.10
2008,07,24,11,40,19.10
2008,07,24,11,41,19.20
2008,07,24,11,42,19.30
2008,07,24,11,43,19.40
2008,07,24,11,44,19.50
2008,07,24,11,45,19.50
2008,07,24,11,46,19.50
2008,07,24,11,47,19.50
2008,07,24,11,48,19.60
2008,07,24,11,49,19.70
2008,07,24,11,50,19.80
2008,07,24,11,51,19.80
2008,07,24,11,52,19.80
2008,07,24,11,53,19.90
2008,07,24,11,54,19.90
2008,07,24,11,55,19.90
2008,07,24,11,56,20.00
2008,07,24,11,57,20.00
2008,07,24,11,58,20.10
2008,07,24,11,59,20.20
2008,07,24,12,00,20.20
2008,07,24,12,01,20.20
2008,07,24,12,02,20.10
2008,07,24,12,03,20.10
2008,07,24,12,04,20.00
2008,07,24,12,05,20.00
2008,07,24,12,06,20.00
2008,07,24,12,07,20.10
2008,07,24,12,08,20.20
2008,07,24,12,09,20.20
2008,07,24,12,10,20.20
2008,07,24,12,11,20.30
2008,07,24,12,12,20.30
2008,07,24,12,13,20.40
2008,07,24,12,14,20.40
2008,07,24,12,15,20.40
2008,07,24,12,16,20.30
2008,07,24,12,17,20.20
2008,07,24,12,18,20.10
2008,07,24,12,19,20.00
2008,07,24,12,20,19.90
2008,07,24,12,21,19.90
2008,07,24,12,22,19.80
2008,07,24,12,23,19.80
2008,07,24,12,24,19.80
2008,07,24,12,25,19.80
2008,07,24,12,26,19.70
2008,07,24,12,27,19.70
2008,07,24,12,28,19.70
2008,07,24,12,29,19.60
2008,07,24,12,30,19.60
2008,07,24,12,31,19.60
2008,07,24,12,32,19.60
2008,07,24,12,33,19.70
2008,07,24,12,34,19.70
2008,07,24,12,35,19.60
2008,07,24,12,36,19.60
2008,07,24,12,37,19.70
2008,07,24,12,38,19.70
2008,07,24,12,39,19.80
2008,07,24,12,40,19.80
2008,07,24,12,41,19.90
2008,07,24,12,42,19.90
2008,07,24,12,43,19.90
2008,07,24,12,44,20.00
2008,07,24,12,45,20.10
2008,07,24,12,46,20.20
2008,07,24,12,47,20.30
2008,07,24,12,48,20.30
2008,07,24,12,49,20.40
2008,07,24,12,50,20.60
2008,07,24,12,51,20.70
2008,07,24,12,52,20.80
2008,07,24,12,53,21.00
2008,07,24,12,54,21.10
2008,07,24,12,55,21.30
2008,07,24,12,56,21.40
2008,07,24,12,57,21.40
2008,07,24,12,58,21.40
2008,07,24,12,59,21.40
2008,07,24,13,00,21.40
2008,07,24,13,01,21.40
2008,07,24,13,02,21.30
2008,07,24,13,03,21.20
2008,07,24,13,04,21.10
2008,07,24,13,05,21.00
2008,07,24,13,06,20.90
2008,07,24,13,07,20.90
2008,07,24,13,08,21.00
2008,07,24,13,09,21.00
2008,07,24,13,10,21.00
2008,07,24,13,11,21.00
2008,07,24,13,12,20.90
2008,07,24,13,13,21.00
2008,07,24,13,14,21.10
2008,07,24,13,15,21.20
2008,07,24,13,16,21.20
2008,07,24,13,17,21.20
2008,07,24,13,18,21.20
2008,07,24,13,19,21.20
2008,07,24,13,20,21.20
2008,07,24,13,21,21.10
2008,07,24,13,22,21.10
2008,07,24,13,23,21.10
2008,07,24,13,24,21.00
2008,07,24,13,25,21.00
2008,07,24,13,26,21.00
2008,07,24,13,27,21.00
2008,07,24,13,28,20.90
2008,07,24,13,29,20.90
2008,07,24,13,30,20.80
2008,07,24,13,31,20.70
2008,07,24,13,32,20.70
2008,07,24,13,33,20.70
2008,07,24,13,34,20.70
2008,07,24,13,35,20.70
2008,07,24,13,36,20.70
2008,07,24,13,37,20.70
2008,07,24,13,38,20.70
2008,07,24,13,39,20.70
2008,07,24,13,40,20.60
2008,07,24,13,41,20.60
2008,07,24,13,42,20.60
2008,07,24,13,43,20.60
2008,07,24,13,44,20.60
2008,07,24,13,45,20.70
2008,07,24,13,46,20.70
2008,07,24,13,47,20.80
2008,07,24,13,48,20.90
2008,07,24,13,49,20.90
2008,07,24,13,50,21.00
2008,07,24,13,51,21.00
2008,07,24,13,52,21.00
2008,07,24,13,53,21.00
2008,07,24,13,54,21.00
2008,07,24,13,55,20.90
2008,07,24,13,56,20.90
2008,07,24,13,57,20.80
2008,07,24,13,58,20.80
2008,07,24,13,59,20.80
2008,07,24,14,00,20.80
2008,07,24,14,01,20.80
2008,07,24,14,02,20.80
2008,07,24,14,03,20.90
2008,07,24,14,04,21.00
2008,07,24,14,05,21.00
2008,07,24,14,06,21.10
2008,07,24,14,07,21.10
2008,07,24,14,08,21.10
2008,07,24,14,09,21.20
2008,07,24,14,10,21.20
2008,07,24,14,11,21.30
2008,07,24,14,12,21.30
2008,07,24,14,13,21.40
2008,07,24,14,14,21.40
2008,07,24,14,15,21.50
2008,07,24,14,16,21.60
2008,07,24,14,17,21.50
2008,07,24,14,18,21.40
2008,07,24,14,19,21.40
2008,07,24,14,20,21.40
2008,07,24,14,21,21.40
2008,07,24,14,22,21.40
2008,07,24,14,23,21.40
2008,07,24,14,24,21.50
2008,07,24,14,25,21.50
2008,07,24,14,26,21.60
2008,07,24,14,27,21.60
2008,07,24,14,28,21.50
2008,07,24,14,29,21.50
2008,07,24,14,30,21.40
2008,07,24,14,31,21.30
2008,07,24,14,32,21.30
2008,07,24,14,33,21.20
2008,07,24,14,34,21.30
2008,07,24,14,35,21.40
2008,07,24,14,36,21.50
2008,07,24,14,37,21.50
2008,07,24,14,38,21.40
2008,07,24,14,39,21.40
2008,07,24,14,40,21.40
2008,07,24,14,41,21.50
2008,07,24,14,42,21.50
2008,07,24,14,43,21.50
2008,07,24,14,44,21.60
2008,07,24,14,45,21.50
2008,07,24,14,46,21.40
2008,07,24,14,47,21.50
2008,07,24,14,48,21.60
2008,07,24,14,49,21.70
2008,07,24,14,50,21.70
2008,07,24,14,51,21.70
2008,07,24,14,52,21.80
2008,07,24,14,53,21.80
2008,07,24,14,54,21.80
2008,07,24,14,55,21.80
2008,07,24,14,56,21.90
2008,07,24,14,57,21.80
2008,07,24,14,58,21.90
2008,07,24,14,59,21.90
2008,07,24,15,00,21.90
2008,07,24,15,01,21.80
2008,07,24,15,02,21.80
2008,07,24,15,03,21.80
2008,07,24,15,04,21.80
2008,07,24,15,05,21.70
2008,07,24,15,06,21.70
2008,07,24,15,07,21.70
2008,07,24,15,08,21.70
2008,07,24,15,09,21.70
2008,07,24,15,10,21.70
2008,07,24,15,11,21.70
2008,07,24,15,12,21.70
2008,07,24,15,13,21.80
2008,07,24,15,14,21.90
2008,07,24,15,15,22.00
2008,07,24,15,16,22.10
2008,07,24,15,17,22.10
2008,07,24,15,18,22.10
2008,07,24,15,19,22.10
2008,07,24,15,20,22.10
2008,07,24,15,21,22.10
2008,07,24,15,22,22.10
2008,07,24,15,23,22.20
2008,07,24,15,24,22.10
2008,07,24,15,25,22.00
2008,07,24,15,26,21.90
2008,07,24,15,27,21.90
2008,07,24,15,28,22.00
2008,07,24,15,29,22.00
2008,07,24,15,30,22.10
2008,07,24,15,31,22.10
2008,07,24,15,32,22.10
2008,07,24,15,33,22.20
2008,07,24,15,34,22.20
2008,07,24,15,35,22.30
2008,07,24,15,36,22.40
2008,07,24,15,37,22.50
2008,07,24,15,38,22.50
2008,07,24,15,39,22.30
2008,07,24,15,40,22.20
2008,07,24,15,41,22.20
2008,07,24,15,42,22.20
2008,07,24,15,43,22.20
2008,07,24,15,44,22.20
2008,07,24,15,45,22.20
2008,07,24,15,46,22.20
2008,07,24,15,47,22.10
2008,07,24,15,48,22.00
2008,07,24,15,49,21.80
2008,07,24,15,50,21.60
2008,07,24,15,51,21.50
2008,07,24,15,52,21.40
2008,07,24,15,53,21.40
2008,07,24,15,54,21.30
2008,07,24,15,55,21.20
2008,07,24,15,56,21.10
2008,07,24,15,57,21.10
2008,07,24,15,58,21.10
2008,07,24,15,59,21.00
2008,07,24,16,00,21.00
2008,07,24,16,01,20.90
2008,07,24,16,02,21.00
2008,07,24,16,03,21.10
2008,07,24,16,04,21.20
2008,07,24,16,05,21.30
2008,07,24,16,06,21.40
2008,07,24,16,07,21.50
2008,07,24,16,08,21.70
2008,07,24,16,09,21.80
2008,07,24,16,10,21.90
2008,07,24,16,11,22.00
2008,07,24,16,12,22.10
2008,07,24,16,13,22.20
2008,07,24,16,14,22.20
2008,07,24,16,15,22.20
2008,07,24,16,16,22.30
2008,07,24,16,17,22.30
2008,07,24,16,18,22.30
2008,07,24,16,19,22.30
2008,07,24,16,20,22.30
2008,07,24,16,21,22.30
2008,07,24,16,22,22.30
2008,07,24,16,23,22.30
2008,07,24,16,24,22.30
2008,07,24,16,25,22.40
2008,07,24,16,26,22.40
2008,07,24,16,27,22.40
2008,07,24,16,28,22.40
2008,07,24,16,29,22.40
2008,07,24,16,30,22.40
2008,07,24,16,31,22.40
2008,07,24,16,32,22.30
2008,07,24,16,33,22.30
2008,07,24,16,34,22.30
2008,07,24,16,35,22.30
2008,07,24,16,36,22.30
2008,07,24,16,37,22.30
2008,07,24,16,38,22.30
2008,07,24,16,39,22.30
2008,07,24,16,40,22.30
2008,07,24,16,41,22.30
2008,07,24,16,42,22.30
2008,07,24,16,43,22.40
2008,07,24,16,44,22.50
2008,07,24,16,45,22.60
2008,07,24,16,46,22.80
2008,07,24,16,47,22.90
2008,07,24,16,48,22.90
2008,07,24,16,49,22.80
2008,07,24,16,50,22.80
2008,07,24,16,51,22.80
2008,07,24,16,52,22.90
2008,07,24,16,53,22.90
2008,07,24,16,54,23.00
2008,07,24,16,55,23.10
2008,07,24,16,56,23.20
2008,07,24,16,57,23.20
2008,07,24,16,58,23.20
2008,07,24,16,59,23.10
2008,07,24,17,00,23.00
2008,07,24,17,01,23.00
2008,07,24,17,02,22.90
2008,07,24,17,03,22.90
2008,07,24,17,04,22.90
2008,07,24,17,05,22.90
2008,07,24,17,06,23.00
2008,07,24,17,07,23.00
2008,07,24,17,08,23.00
2008,07,24,17,09,23.00
2008,07,24,17,10,22.90
2008,07,24,17,11,22.90
2008,07,24,17,12,22.80
2008,07,24,17,13,22.80
2008,07,24,17,14,22.80
2008,07,24,17,15,22.80
2008,07,24,17,16,22.90
2008,07,24,17,17,22.90
2008,07,24,17,18,23.00
2008,07,24,17,19,23.20
2008,07,24,17,20,23.20
2008,07,24,17,21,23.30
2008,07,24,17,22,23.30
2008,07,24,17,23,23.30
2008,07,24,17,24,23.30
2008,07,24,17,25,23.30
2008,07,24,17,26,23.30
2008,07,24,17,27,23.30